TimeIST,TemperatureF,Dew PointF,Humidity,Sea Level PressureIn,VisibilityMPH,Wind Direction,Wind SpeedMPH,Gust SpeedMPH,PrecipitationIn,Events,Conditions,WindDirDegrees,DateUTC
12:00 AM,48.2,44.6,87,29.98,-9999.0,NW,8.1,-,N/A,,Clear,310,2013-09-06 23:00:00
12:30 AM,46.4,44.6,93,29.98,-9999.0,NW,8.1,-,N/A,,Clear,310,2013-09-06 23:30:00
1:00 AM,47,45,89,29.99,16,WNW,8.9,,,,Partly Cloudy,300,2013-09-07 00:00:00
1:00 AM,46.4,44.6,93,29.98,-9999.0,WNW,8.1,-,N/A,,Clear,300,2013-09-07 00:00:00
1:30 AM,46.4,44.6,93,29.98,-9999.0,NW,6.9,-,N/A,,Clear,310,2013-09-07 00:30:00
2:00 AM,46.4,44.6,93,29.98,-9999.0,WNW,6.9,-,N/A,,Clear,300,2013-09-07 01:00:00
2:30 AM,46.4,44.6,93,29.98,-9999.0,NW,8.1,-,N/A,,Clear,310,2013-09-07 01:30:00
3:00 AM,46.4,44.6,93,29.98,-9999.0,WNW,6.9,-,N/A,,Clear,300,2013-09-07 02:00:00
3:30 AM,46.4,44.6,93,29.98,-9999.0,WNW,6.9,-,N/A,,Clear,300,2013-09-07 02:30:00
4:00 AM,46.4,44.6,93,29.98,-9999.0,NW,6.9,-,N/A,,Clear,310,2013-09-07 03:00:00
4:30 AM,46.4,44.6,93,29.98,-9999.0,WNW,8.1,-,N/A,,Clear,300,2013-09-07 03:30:00
5:00 AM,48.2,44.6,87,29.98,-9999.0,NW,11.5,-,N/A,,Clear,310,2013-09-07 04:00:00
5:30 AM,48.2,44.6,87,29.98,6.2,NW,10.4,-,N/A,,Scattered Clouds,310,2013-09-07 04:30:00
6:00 AM,50.0,46.4,87,29.98,6.2,WNW,8.1,-,N/A,,Mostly Cloudy,300,2013-09-07 05:00:00
6:30 AM,50.0,46.4,87,29.98,6.2,NW,15.0,-,N/A,Rain,Light Rain Showers,320,2013-09-07 05:30:00
7:00 AM,50,46,79,29.99,16,NW,13.4,,,Rain,Light Rain Showers,320,2013-09-07 06:00:00
7:00 AM,50.0,46.4,87,29.98,6.2,NW,12.7,-,N/A,,Mostly Cloudy,320,2013-09-07 06:00:00
7:30 AM,50.0,44.6,82,29.98,6.2,NW,12.7,-,N/A,,Mostly Cloudy,320,2013-09-07 06:30:00
8:00 AM,51.8,44.6,76,29.98,6.2,NW,12.7,-,N/A,,Mostly Cloudy,320,2013-09-07 07:00:00
8:30 AM,51.8,44.6,76,29.98,6.2,WNW,11.5,-,N/A,,Mostly Cloudy,300,2013-09-07 07:30:00
9:00 AM,51.8,42.8,71,29.98,6.2,NW,11.5,-,N/A,,Mostly Cloudy,310,2013-09-07 08:00:00
9:30 AM,53.6,44.6,72,29.98,6.2,WNW,13.8,-,N/A,,Mostly Cloudy,300,2013-09-07 08:30:00
10:00 AM,53.6,44.6,72,29.98,6.2,WNW,15.0,-,N/A,,Mostly Cloudy,300,2013-09-07 09:00:00
10:30 AM,53.6,42.8,67,29.98,6.2,NW,16.1,-,N/A,,Mostly Cloudy,310,2013-09-07 09:30:00
11:00 AM,53.6,44.6,72,29.98,6.2,NW,13.8,-,N/A,,Mostly Cloudy,310,2013-09-07 10:00:00
11:30 AM,53.6,42.8,67,29.98,6.2,NW,18.4,-,N/A,Rain,Light Rain,320,2013-09-07 10:30:00
12:00 PM,51.8,46.4,82,30.01,6.2,NNW,13.8,-,N/A,,Mostly Cloudy,340,2013-09-07 11:00:00
12:30 PM,51.8,46.4,82,30.01,6.2,NW,12.7,-,N/A,,Mostly Cloudy,320,2013-09-07 11:30:00
1:00 PM,53,46,69,30.00,19,NW,11.2,,,Rain,Light Rain,310,2013-09-07 12:00:00
1:00 PM,53.6,46.4,77,29.98,6.2,NW,11.5,-,N/A,Rain,Light Rain,310,2013-09-07 12:00:00
1:30 PM,51.8,46.4,82,30.01,6.2,NW,9.2,-,N/A,Rain,Light Rain,320,2013-09-07 12:30:00
2:00 PM,50.0,48.2,94,29.98,6.2,West,13.8,-,N/A,Rain,Light Rain Showers,280,2013-09-07 13:00:00
2:30 PM,51.8,48.2,88,29.98,6.2,WNW,12.7,-,N/A,,Mostly Cloudy,290,2013-09-07 13:30:00
3:00 PM,51.8,46.4,82,29.98,6.2,WNW,11.5,-,N/A,,Mostly Cloudy,290,2013-09-07 14:00:00
3:30 PM,51.8,46.4,82,29.98,6.2,West,11.5,-,N/A,,Mostly Cloudy,280,2013-09-07 14:30:00
4:00 PM,51.8,46.4,82,29.98,5.0,West,12.7,-,N/A,Rain,Light Rain,260,2013-09-07 15:00:00
4:30 PM,51.8,48.2,88,29.98,6.2,West,9.2,-,N/A,Rain,Light Rain,270,2013-09-07 15:30:00
5:00 PM,51.8,46.4,82,29.98,6.2,WNW,15.0,-,N/A,Rain,Light Rain,290,2013-09-07 16:00:00
5:30 PM,50.0,48.2,94,29.95,6.2,WNW,10.4,-,N/A,,Mostly Cloudy,290,2013-09-07 16:30:00
6:00 PM,51.8,46.4,82,29.95,6.2,West,11.5,-,N/A,,Mostly Cloudy,260,2013-09-07 17:00:00
6:30 PM,51.8,48.2,88,29.95,6.2,WSW,11.5,-,N/A,,Mostly Cloudy,240,2013-09-07 17:30:00
7:00 PM,51,48,85,29.96,11,WSW,13.4,,,,Partly Cloudy,250,2013-09-07 18:00:00
7:00 PM,51.8,48.2,88,29.95,6.2,WSW,12.7,-,N/A,,Mostly Cloudy,250,2013-09-07 18:00:00
7:30 PM,51.8,48.2,88,29.95,6.2,WSW,11.5,-,N/A,,Mostly Cloudy,250,2013-09-07 18:30:00
8:00 PM,51.8,48.2,88,29.95,6.2,West,10.4,-,N/A,,Mostly Cloudy,260,2013-09-07 19:00:00
8:30 PM,51.8,48.2,88,29.95,6.2,WSW,9.2,-,N/A,,Mostly Cloudy,250,2013-09-07 19:30:00
9:00 PM,51.8,48.2,88,29.95,6.2,West,6.9,-,N/A,Rain,Light Rain,260,2013-09-07 20:00:00
9:30 PM,51.8,46.4,82,29.98,6.2,West,8.1,-,N/A,Rain,Light Rain,280,2013-09-07 20:30:00
10:00 PM,51.8,46.4,82,29.98,6.2,WNW,6.9,-,N/A,,Mostly Cloudy,300,2013-09-07 21:00:00
10:30 PM,51.8,48.2,88,29.98,6.2,West,6.9,-,N/A,,Mostly Cloudy,280,2013-09-07 21:30:00
11:00 PM,51.8,46.4,82,29.98,6.2,West,6.9,-,N/A,,Mostly Cloudy,280,2013-09-07 22:00:00
11:30 PM,50.0,46.4,87,29.98,6.2,WNW,10.4,-,N/A,,Overcast,290,2013-09-07 22:30:00